sat.trackr.live / text

‹ back to catalog

BEIDOU-2 M6 (C14)

NORAD 38775 · 2012-050B

PAYLOAD ACTIVE UNKNOWN

§ Identity

Operator
Country
PRC
Launch date
2012-09-18
Launch site
XICLF
Launch vehicle
Mass (kg)
RCS (m²)
10.00

Purposes: nav

External: N2YO · Heavens-Above · Gunter

§ Orbital elements

Epoch: 2026-09-09T03:11:12.241248Z

Period
773.23 min
Inclination
56.6219°
Eccentricity
0.0011072
Mean motion
1.86230809 rev/d
Perigee alt
21,497.2 km
Apogee alt
21,559.0 km
Semi-major
27,906.2 km
B*
0.0000e+0
RAAN
60.1227°
Arg perigee
4.5097°
Mean anomaly
355.5328°
Rev number
9,487

§ Raw data

BEIDOU-2 M6 (C14)1 38775U 12050B   26252.13278057 -.00000013  00000+0  00000+0 0  99912 38775  56.6219  60.1227 0011072   4.5097 355.5328  1.86230809 94871

JSON: /api/v1/satellites/38775 · /tle

For live sub-satellite position, see the globe view (requires WebGL).

§ Visibility from observer

Set your observer location to see the next 7 days of passes ≥ 10°. The values pass through the URL so the page stays shareable.

No JS? Fill the form by hand. The geolocation button needs JavaScript.